| time (UTC) | temp C | wind direction | speed KPH | gust KPH | rain 1hr cm | rain 24hr cm | rain mn cm | humidity % | barometer mb |
| 20260508183003 | 10 | 308 | 19.3 | 25.7 | 0.00 | 0.00 | 0.00 | 70 | 1016.9 |
| 20260508181503 | 10 | 308 | 20.9 | 29.0 | 0.00 | 0.00 | 0.00 | 68 | 1016.6 |
| 20260508180003 | 11 | 310 | 17.7 | 30.6 | 0.00 | 0.00 | 0.00 | 68 | 1016.5 |
| 20260508174503 | 10 | 314 | 16.1 | 25.7 | 0.00 | 0.00 | 0.00 | 71 | 1016.4 |
| 20260508173003 | 10 | 312 | 19.3 | 29.0 | 0.00 | 0.00 | 0.00 | 70 | 1016.3 |
| 20260508171503 | 10 | 323 | 14.5 | 25.7 | 0.00 | 0.00 | 0.00 | 71 | 1016.0 |
| 20260508170004 | 10 | 311 | 19.3 | 30.6 | 0.00 | 0.00 | 0.00 | 70 | 1015.8 |
| 20260508164503 | 10 | 308 | 19.3 | 33.8 | 0.00 | 0.00 | 0.00 | 72 | 1015.5 |
| 20260508163003 | 10 | 313 | 20.9 | 30.6 | 0.00 | 0.00 | 0.00 | 71 | 1015.2 |
| 20260508161504 | 10 | 315 | 24.1 | 33.8 | 0.00 | 0.00 | 0.00 | 73 | 1015.2 |
| 20260508160003 | 11 | 314 | 24.1 | 38.6 | 0.00 | 0.00 | 0.00 | 73 | 1015.1 |
| 20260508154503 | 11 | 312 | 22.5 | 37.0 | 0.00 | 0.00 | 0.00 | 73 | 1015.0 |
| 20260508153003 | 11 | 313 | 22.5 | 33.8 | 0.00 | 0.00 | 0.00 | 70 | 1014.9 |
| 20260508151503 | 11 | 309 | 22.5 | 37.0 | 0.00 | 0.00 | 0.00 | 71 | 1014.7 |
| 20260508150004 | 12 | 315 | 22.5 | 35.4 | 0.00 | 0.00 | 0.00 | 68 | 1014.5 |
| 20260508144524 | 12 | 304 | 22.5 | 35.4 | 0.00 | 0.00 | 0.00 | 65 | 1014.3 |
| 20260508143003 | 12 | 301 | 20.9 | 33.8 | 0.00 | 0.00 | 0.00 | 67 | 1014.1 |
| 20260508141503 | 12 | 306 | 24.1 | 38.6 | 0.00 | 0.00 | 0.00 | 66 | 1013.9 |
| 20260508140003 | 12 | 310 | 12.9 | 20.9 | 0.00 | 0.00 | 0.00 | 67 | 1013.7 |
| 20260508134503 | 12 | 302 | 16.1 | 30.6 | 0.00 | 0.00 | 0.00 | 67 | 1013.6 |
| 20260508133003 | 12 | 293 | 20.9 | 29.0 | 0.00 | 0.00 | 0.00 | 65 | 1013.5 |
| 20260508131503 | 13 | 275 | 9.7 | 22.5 | 0.00 | 0.00 | 0.00 | 62 | 1013.3 |
| 20260508130004 | 13 | 276 | 8.0 | 24.1 | 0.00 | 0.00 | 0.00 | 64 | 1013.2 |
| 20260508124503 | 13 | 259 | 11.3 | 24.1 | 0.00 | 0.00 | 0.00 | 62 | 1013.1 |
| 20260508123003 | 13 | 237 | 12.9 | 24.1 | 0.00 | 0.00 | 0.00 | 65 | 1013.0 |
| 20260508121503 | 12 | 236 | 22.5 | 37.0 | 0.00 | 0.00 | 0.00 | 64 | 1013.0 |
| 20260508120003 | 13 | 235 | 17.7 | 35.4 | 0.00 | 0.00 | 0.00 | 66 | 1012.9 |
| 20260508114503 | 13 | 223 | 17.7 | 40.2 | 0.00 | 0.00 | 0.00 | 66 | 1012.6 |
| 20260508113004 | 12 | 230 | 22.5 | 38.6 | 0.00 | 0.00 | 0.00 | 65 | 1012.5 |
| 20260508111503 | 13 | 235 | 24.1 | 38.6 | 0.00 | 0.00 | 0.00 | 66 | 1012.3 |
| 20260508110003 | 12 | 236 | 22.5 | 40.2 | 0.00 | 0.00 | 0.00 | 68 | 1012.3 |
| 20260508104503 | 12 | 234 | 17.7 | 29.0 | 0.00 | 0.00 | 0.00 | 71 | 1012.3 |
| 20260508103003 | 11 | 244 | 22.5 | 40.2 | 0.00 | 0.00 | 0.00 | 70 | 1012.1 |
| 20260508101503 | 11 | 246 | 24.1 | 35.4 | 0.00 | 0.00 | 0.00 | 69 | 1012.0 |
| 20260508100003 | 11 | 237 | 20.9 | 37.0 | 0.00 | 0.00 | 0.00 | 69 | 1012.0 |
| 20260508094524 | 11 | 230 | 22.5 | 35.4 | 0.00 | 0.00 | 0.00 | 70 | 1011.7 |
| 20260508093003 | 11 | 227 | 19.3 | 35.4 | 0.00 | 0.00 | 0.00 | 71 | 1011.6 |
| 20260508091524 | 11 | 219 | 19.3 | 33.8 | 0.00 | 0.00 | 0.00 | 69 | 1011.6 |
| 20260508090024 | 10 | 219 | 16.1 | 29.0 | 0.00 | 0.00 | 0.00 | 73 | 1011.4 |
| 20260508084503 | 10 | 219 | 12.9 | 25.7 | 0.00 | 0.00 | 0.00 | 73 | 1011.4 |
| 20260508083003 | 10 | 219 | 16.1 | 30.6 | 0.00 | 0.00 | 0.00 | 73 | 1011.3 |
| 20260508081524 | 10 | 217 | 9.7 | 20.9 | 0.00 | 0.00 | 0.00 | 73 | 1011.2 |
| 20260508080024 | 10 | 219 | 9.7 | 22.5 | 0.00 | 0.00 | 0.00 | 75 | 1011.1 |
| 20260508074524 | 9 | 205 | 8.0 | 25.7 | 0.00 | 0.00 | 0.00 | 78 | 1010.9 |
| 20260508073003 | 9 | 206 | 11.3 | 22.5 | 0.00 | 0.00 | 0.00 | 77 | 1010.6 |
| 20260508071524 | 8 | 225 | 6.4 | 17.7 | 0.00 | 0.00 | 0.00 | 79 | 1010.4 |
| 20260508070003 | 8 | 218 | 11.3 | 25.7 | 0.00 | 0.00 | 0.00 | 80 | 1010.1 |
| 20260508064503 | 8 | 218 | 11.3 | 20.9 | 0.00 | 0.00 | 0.00 | 81 | 1009.9 |
| 20260508063003 | 8 | 218 | 9.7 | 19.3 | 0.00 | 0.00 | 0.00 | 82 | 1009.9 |
| 20260508061503 | 8 | 209 | 4.8 | 12.9 | 0.00 | 0.00 | 0.00 | 84 | 1009.8 |
| 20260508060024 | 8 | 210 | 8.0 | 14.5 | 0.00 | 0.00 | 0.00 | 85 | 1009.6 |
| 20260508054503 | 8 | 217 | 8.0 | 14.5 | 0.00 | 0.00 | 0.00 | 86 | 1009.4 |
| 20260508053003 | 8 | 220 | 8.0 | 14.5 | 0.00 | 0.00 | 0.00 | 87 | 1009.2 |
| 20260508051503 | 8 | 208 | 9.7 | 19.3 | 0.00 | 0.00 | 0.00 | 87 | 1009.1 |
| 20260508050003 | 8 | 194 | 11.3 | 17.7 | 0.00 | 0.00 | 0.00 | 87 | 1009.0 |
| 20260508044503 | 8 | 189 | 12.9 | 17.7 | 0.00 | 0.00 | 0.00 | 87 | 1008.9 |
| 20260508043003 | 7 | 187 | 9.7 | 17.7 | 0.00 | 0.00 | 0.00 | 87 | 1008.8 |
| 20260508041524 | 7 | 183 | 11.3 | 16.1 | 0.00 | 0.00 | 0.00 | 86 | 1008.8 |
| 20260508040003 | 8 | 183 | 14.5 | 19.3 | 0.00 | 0.00 | 0.00 | 85 | 1008.6 |
| 20260508034503 | 8 | 187 | 12.9 | 19.3 | 0.00 | 0.00 | 0.00 | 85 | 1008.6 |
| 20260508033003 | 8 | 175 | 17.7 | 22.5 | 0.00 | 0.00 | 0.00 | 85 | 1008.4 |
| 20260508031503 | 8 | 175 | 19.3 | 24.1 | 0.00 | 0.00 | 0.00 | 84 | 1008.4 |
| 20260508030003 | 8 | 179 | 19.3 | 29.0 | 0.00 | 0.00 | 0.00 | 84 | 1008.4 |
| 20260508024524 | 8 | 181 | 14.5 | 24.1 | 0.00 | 0.00 | 0.00 | 83 | 1008.5 |
| 20260508023024 | 8 | 184 | 17.7 | 22.5 | 0.00 | 0.00 | 0.00 | 82 | 1008.4 |
| 20260508021503 | 8 | 179 | 14.5 | 29.0 | 0.00 | 0.00 | 0.00 | 83 | 1008.5 |
| 20260508020005 | 8 | 168 | 16.1 | 24.1 | 0.00 | 0.00 | 0.00 | 84 | 1008.3 |
| 20260508014505 | 8 | 165 | 19.3 | 25.7 | 0.00 | 0.00 | 0.00 | 84 | 1008.2 |
| 20260508013005 | 8 | 174 | 24.1 | 29.0 | 0.00 | 0.00 | 0.00 | 83 | 1008.2 |
| 20260508011505 | 8 | 182 | 29.0 | 38.6 | 0.00 | 0.00 | 0.00 | 83 | 1008.1 |
| 20260508010005 | 7 | 177 | 20.9 | 32.2 | 0.00 | 0.00 | 0.00 | 85 | 1008.2 |
| 20260508004505 | 7 | 180 | 20.9 | 30.6 | 0.00 | 0.00 | 0.00 | 84 | 1008.3 |
| 20260508003005 | 8 | 187 | 25.7 | 37.0 | 0.00 | 0.00 | 0.00 | 83 | 1008.1 |
| 20260508001505 | 7 | 186 | 25.7 | 38.6 | 0.00 | 0.00 | 0.00 | 83 | 1008.0 |
| 20260508000005 | 7 | 184 | 25.7 | 33.8 | 0.00 | 0.00 | 0.00 | 82 | 1008.0 |
| 20260507234505 | 8 | 184 | 25.7 | 40.2 | 0.00 | 0.00 | 0.00 | 82 | 1008.1 |
| 20260507233005 | 8 | 182 | 24.1 | 33.8 | 0.00 | 0.00 | 0.00 | 82 | 1008.1 |
| 20260507231504 | 8 | 184 | 25.7 | 35.4 | 0.00 | 0.00 | 0.00 | 82 | 1008.4 |
| 20260507230005 | 7 | 179 | 22.5 | 32.2 | 0.00 | 0.00 | 0.00 | 85 | 1008.4 |
| 20260507224505 | 7 | 181 | 24.1 | 32.2 | 0.00 | 0.00 | 0.00 | 86 | 1008.3 |
| 20260507223005 | 8 | 183 | 20.9 | 30.6 | 0.00 | 0.00 | 0.00 | 85 | 1008.3 |
| 20260507221504 | 8 | 184 | 24.1 | 35.4 | 0.00 | 0.00 | 0.00 | 86 | 1008.3 |
| 20260507220004 | 8 | 183 | 27.4 | 35.4 | 0.00 | 0.00 | 0.00 | 86 | 1008.2 |
| 20260507214505 | 8 | 181 | 29.0 | 38.6 | 0.00 | 0.00 | 0.00 | 86 | 1008.2 |
| 20260507213005 | 8 | 182 | 27.4 | 37.0 | 0.00 | 0.00 | 0.00 | 86 | 1008.3 |
| 20260507211505 | 8 | 181 | 29.0 | 40.2 | 0.00 | 0.00 | 0.00 | 86 | 1008.5 |
| 20260507210005 | 8 | 176 | 30.6 | 37.0 | 0.00 | 0.00 | 0.00 | 86 | 1008.5 |
| 20260507204505 | 8 | 175 | 29.0 | 37.0 | 0.00 | 0.00 | 0.00 | 85 | 1008.3 |
| 20260507203005 | 8 | 174 | 29.0 | 38.6 | 0.00 | 0.00 | 0.00 | 85 | 1008.3 |
| 20260507201504 | 8 | 174 | 24.1 | 32.2 | 0.00 | 0.00 | 0.00 | 86 | 1008.3 |
| 20260507200026 | 8 | 172 | 25.7 | 33.8 | 0.00 | 0.00 | 0.00 | 85 | 1008.2 |
| 20260507194525 | 8 | 166 | 25.7 | 33.8 | 0.00 | 0.00 | 0.00 | 86 | 1008.1 |
| 20260507193004 | 9 | 164 | 22.5 | 30.6 | 0.00 | 0.00 | 0.00 | 85 | 1008.0 |
| 20260507191505 | 9 | 170 | 22.5 | 30.6 | 0.00 | 0.00 | 0.00 | 85 | 1008.0 |
| 20260507190005 | 10 | 170 | 27.4 | 38.6 | 0.00 | 0.00 | 0.00 | 84 | 1008.2 |
| 20260507184525 | 10 | 172 | 27.4 | 37.0 | 0.00 | 0.00 | 0.00 | 82 | 1008.0 |